Weather History for KJAN - January, 2012

Change the Weather History Date:

Sunday, January 1, 2012

  Actual Average Record
Temperature  
Mean Temperature 55 °F 46 °F  
Max Temperature 68 °F 56 °F 81 °F (1952)
Min Temperature 42 °F 36 °F 17 °F (1977)
Degree Days  
Heating Degree Days 10 20  
Month to date heating degree days 10 20  
Since 1 July heating degree days 881 970  
Cooling Degree Days 0 0  
Month to date cooling degree days 0 0  
Year to date cooling degree days 0 0  
Growing Degree Days 5 (Base 50)    
Moisture  
Dew Point 47 °F    
Average Humidity 62    
Maximum Humidity 87    
Minimum Humidity 36    
Precipitation  
Precipitation T in 0.14 in 3.99 in (1911)
Month to date precipitation T 0.14  
Year to date precipitation T 0.14  
Sea Level Pressure  
Sea Level Pressure 30.23 in    
Wind  
Wind Speed 12 mph (WNW)    
Max Wind Speed 24 mph    
Max Gust Speed 31 mph    
Visibility 9 miles    
Events      
T = Trace of Precipitation, MM = Missing Value Source: NWS Daily Summary

Daily Weather History Graph

Daily Weather History Graph

Search for Another Location

Airport or City:

Trip Planner

Search our weather history database for the weather conditions in past years. The results will help you decide how hot, cold, wet, or windy it might be!

Date:

Astronomy

Jan. 01, 2012 Rise Set
Actual Time 7:01 AM CST 5:06 PM CST
Civil Twilight 6:34 AM CST 5:33 PM CST
Nautical Twilight 6:03 AM CST 6:03 PM CST
Astronomical Twilight 5:34 AM CST 6:33 PM CST
Moon 11:43 AM CST (1/1) 12:10 AM CST (1/1)
Length of Visible Light 10h 58m
Length of Day
10h 04m
First Quarter, 55% of the Moon is Illuminated
Jan 1
First Quarter
Jan 9
Full
Jan 16
Last Quarter
Jan 23
New
Jan 30
First Quarter

Hourly Weather History & Observations

Time (CST) Temp. Dew Point Humidity Pressure Visibility Wind Dir Wind Speed Gust Speed Precip Events Conditions
12:54 AM 66.9 °F 62.1 °F 84% 30.06 in 8.0 mi South 12.7 mph - N/A   Overcast
1:38 AM 66.2 °F 62.6 °F 88% 30.07 in 8.0 mi SSW 12.7 mph - N/A   Mostly Cloudy
1:54 AM 66.9 °F 62.1 °F 84% 30.06 in 8.0 mi SSW 13.8 mph - N/A   Scattered Clouds
2:16 AM 66.2 °F 62.6 °F 88% 30.08 in 8.0 mi SW 9.2 mph - N/A   Mostly Cloudy
2:54 AM 66.9 °F 62.1 °F 84% 30.07 in 8.0 mi SSW 12.7 mph 19.6 mph N/A   Mostly Cloudy
3:54 AM 66.9 °F 62.1 °F 84% 30.09 in 9.0 mi SSW 10.4 mph - N/A   Overcast
4:06 AM 66.2 °F 62.6 °F 88% 30.09 in 9.0 mi SSW 10.4 mph - N/A   Overcast
4:54 AM 66.9 °F 63.0 °F 87% 30.09 in 9.0 mi SSW 9.2 mph - 0.00 in   Overcast
5:50 AM 66.2 °F 62.6 °F 88% 30.12 in 9.0 mi WSW 5.8 mph - N/A   Mostly Cloudy
5:54 AM 66.9 °F 62.1 °F 84% 30.11 in 9.0 mi SW 6.9 mph - N/A   Mostly Cloudy
6:54 AM 68.0 °F 62.1 °F 81% 30.14 in 9.0 mi WSW 8.1 mph - N/A   Overcast
7:54 AM 64.0 °F 54.0 °F 70% 30.19 in 7.0 mi NNW 17.3 mph 27.6 mph N/A   Mostly Cloudy
8:01 AM 64.4 °F 53.6 °F 68% 30.21 in 8.0 mi NW 17.3 mph 25.3 mph N/A   Mostly Cloudy
8:23 AM 64.4 °F 46.4 °F 52% 30.22 in 10.0 mi NW 13.8 mph 26.5 mph N/A   Mostly Cloudy
8:54 AM 63.0 °F 42.1 °F 46% 30.25 in 10.0 mi NW 18.4 mph 25.3 mph N/A   Clear
9:54 AM 61.0 °F 39.0 °F 44% 30.29 in 10.0 mi NNW 18.4 mph 26.5 mph N/A   Clear
10:54 AM 60.1 °F 36.0 °F 41% 30.30 in 10.0 mi NNW 16.1 mph 24.2 mph N/A   Clear
11:54 AM 60.8 °F 35.6 °F 39% 30.29 in 10.0 mi North 16.1 mph 25.3 mph N/A   Clear
12:54 PM 62.1 °F 36.0 °F 38% 30.27 in 10.0 mi NNW 18.4 mph - N/A   Clear
1:54 PM 63.0 °F 36.0 °F 37% 30.27 in 10.0 mi NNW 13.8 mph - N/A   Clear
2:54 PM 62.1 °F 35.1 °F 37% 30.28 in 10.0 mi NNW 15.0 mph 18.4 mph N/A   Clear
3:54 PM 60.1 °F 34.0 °F 38% 30.32 in 10.0 mi NNW 16.1 mph 24.2 mph N/A   Clear
4:54 PM 57.0 °F 33.1 °F 40% 30.34 in 10.0 mi NNW 16.1 mph 21.9 mph N/A   Clear
5:54 PM 54.0 °F 34.0 °F 47% 30.36 in 10.0 mi NNW 12.7 mph - N/A   Clear
6:54 PM 53.1 °F 34.0 °F 48% 30.38 in 10.0 mi NW 6.9 mph - N/A   Clear
7:54 PM 51.1 °F 34.0 °F 52% 30.41 in 10.0 mi NW 5.8 mph - N/A   Clear
8:54 PM 48.9 °F 33.1 °F 54% 30.42 in 10.0 mi NNW 5.8 mph - N/A   Clear
9:54 PM 46.9 °F 32.0 °F 56% 30.43 in 10.0 mi WNW 4.6 mph - N/A   Clear
10:54 PM 42.8 °F 33.8 °F 70% 30.42 in 10.0 mi Calm Calm - N/A   Clear
11:54 PM 46.9 °F 28.9 °F 50% 30.42 in 10.0 mi NNW 10.4 mph - N/A   Clear